This demonstration page uses our WeatherBlox Daily Observations layout. Learn more.

39.92423, -83.80882

Hourly Observations for May 20, 2016

Temp ( °F °C ) Dew Point ( °F °C ) Humidity (%) Winds ( mph kmh ) Pressure ( in mb ) Visibility ( mi km ) Precip ( " mm )
12:56 am 00:56 Clear 52 11.1 41 5 66 66 E 7 11 30.19 1022 10 16.0934 0 0
1:56 am 01:56 Clear 49 9.4 41 5 74 74 ENE 8 13 30.18 1022 10 16.0934 0 0
2:56 am 02:56 Clear 48 8.8 39 3.8 71 71 ENE 7 11 30.16 1021 10 16.0934 0 0
3:56 am 03:56 Clear 49 9.4 40 4.4 71 71 E 5 7 30.16 1021 10 16.0934 0 0
4:56 am 04:56 Clear 48 8.8 40 4.4 74 74 NE 6 9 30.16 1021 10 16.0934 0 0
5:56 am 05:56 Clear 48 8.8 41 5 77 77 E 6 9 30.18 1022 10 16.0934 0 0
6:56 am 06:56 Sunny 48 8.8 41 5 77 77 ENE 8 13 30.18 1022 10 16.0934 0 0
7:56 am 07:56 Sunny 54 12.2 43 6.1 67 67 E 9 15 30.19 1023 10 16.0934 0 0
8:56 am 08:56 Sunny 58 14.4 44 6.6 60 60 E 9 15 30.19 1023 10 16.0934 0 0
9:56 am 09:56 Sunny 62 16.6 44 6.6 52 52 ENE 12 19 30.18 1022 10 16.0934 0 0
10:56 am 10:56 Sunny 65 18.3 45 7.2 49 49 E 13 20 30.18 1022 10 16.0934 0 0
11:56 am 11:56 Sunny 68 20 49 9.4 51 51 E 15 24 30.14 1021 10 16.0934 0 0
12:56 pm 12:56 Sunny 71 21.6 51 10.5 49 49 E 14 22 30.12 1020 10 16.0934 0 0
1:56 pm 13:56 Mostly Sunny 72 22.2 52 11.1 50 50 E 15 24 30.09 1019 10 16.0934 0 0
2:56 pm 14:56 Sunny 71 21.6 52 11.1 51 51 ESE 15 24 30.08 1019 10 16.0934 0 0
3:56 pm 15:56 Mostly Cloudy 68 20 53 11.6 59 59 E 13 20 30.09 1019 10 16.0934 0 0
4:56 pm 16:56 Mostly Cloudy 69 20.5 54 12.2 59 59 ESE 12 19 30.06 1018 10 16.0934 0 0
5:56 pm 17:56 Partly Cloudy 67 19.4 55 12.7 65 65 ESE 9 15 30.05 1018 10 16.0934 0 0
6:56 pm 18:56 Cloudy with Haze 63 17.2 58 14.4 84 84 SSE 6 9 30.06 1018 6 9.65604 0.01 0.254
7:56 pm 19:56 Cloudy 61 16.1 60 15.5 96 96 ESE 9 15 30.04 1017 10 16.0934 0.04 1.016
8:56 pm 20:56 Cloudy 60 15.5 60 15.5 100 100 E 14 22 29.99 1016 10 16.0934 0.04 1.016
9:56 pm 21:56 Mostly Cloudy with Light Rain 60 15.5 59 15 97 97 Calm 30.03 1017 10 16.0934 0.01 0.254
10:56 pm 22:56 Cloudy 59 15 59 15 100 100 ENE 6 9 30.04 1017 10 16.0934 0 0.0254
11:03 pm 23:03 Cloudy 59 15 59 15 100 100 ENE 6 9 30.03 1017 10 16.0934 0 0
11:24 pm 23:24 Cloudy 59 15 59 15 100 100 NE 7 11 30.03 1017 10 16.0934 0 0
11:56 pm 23:56 Cloudy with Mist and Fog 59 15 59 15 100 100 ENE 8 13 30.01 1016 6 9.65604 0 0

Powered by AerisWeather